Regional Weather Roundup
Issued by NWS

Home | Current Version | Previous Version | Text Only | Print | Product List | Glossary On
Versions: 1 2 3 4 5 6 7 8 9 10 11 12 13 14 15 16 17 18 19 20 21 22 23 24 25 26 27 28 29 30 31 32 33 34 35 36 37 38 39 40 41 42 43 44 45 46 47 48 49 50
000
ASUS43 KMKX 301520
RWRWI

WISCONSIN REGIONAL WEATHER ROUNDUP
NATIONAL WEATHER SERVICE MILWAUKEE/SULLIVAN WI
900 AM CST FRI JAN 30 2015

NOTE: "FAIR" INDICATES FEW OR NO CLOUDS BELOW 12,000 FEET WITH NO
SIGNIFICANT WEATHER AND/OR OBSTRUCTIONS TO VISIBILITY.

WIZ001-002-006>008-014>016-023>028-301600-
NORTHWEST WISCONSIN

CITY           SKY/WX    TMP DP  RH WIND       PRES   REMARKS
SUPERIOR ARPT  PTSUNNY    4  -1  79 SW3       30.52S
ASHLAND        CLOUDY     6   1  80 W5        30.52R WCI  -3
HAYWARD        CLOUDY     1  -2  87 CALM      30.48S
SIREN          MOSUNNY    4   0  81 CALM      30.51S
CUMBERLAND     MOSUNNY    0  -4  85 CALM      30.47F
RICE LAKE      MOSUNNY    3   0  85 CALM      30.50F
CHETEK         MOSUNNY    4   0  80 CALM      30.50F
LADYSMITH      MOSUNNY    5   1  81 CALM      30.49S
EAU CLAIRE     PTSUNNY    8   1  73 CALM      30.52S
MENOMONIE      SUNNY      9   1  72 CALM      30.54R
NEW RICHMOND   PTSUNNY    7   1  75 CALM      30.51F
OSCEOLA        PTSUNNY    8   2  75 S3        30.55F
$$

WIZ003>005-009-010-017-018-301600-
NORTH CENTRAL WISCONSIN

CITY           SKY/WX    TMP DP  RH WIND       PRES   REMARKS
MANITOWISH WTR CLOUDY     9   3  77 W3        30.41R
ARBOR VITAE    CLOUDY    11   4  73 CALM      30.42R
WOODRUFF       CLOUDY    11   4  73 CALM      30.42R
RHINELANDER    CLOUDY     9   2  73 CALM      30.42R
EAGLE RIVER    FLURRIES  10   2  71 CALM      30.41R
LAND O LAKES   CLOUDY    10   4  75 W3        30.41R
PHILLIPS       MOSUNNY    7   2  81 CALM      30.43S
TOMAHAWK       MOSUNNY   10   2  72 CALM      30.44S
MEDFORD        CLOUDY     6   2  82 W3        30.44F
MERRILL        MOSUNNY   11   4  70 W3        30.46R
$$

WIZ029-030-035-036-043>047-301600-
CENTRAL WISCONSIN

CITY           SKY/WX    TMP DP  RH WIND       PRES   REMARKS
WAUSAU         PTSUNNY   11   3  70 NW5       30.46R WCI   3
MOSINEE        SUNNY     10   7  85 W3        30.48R
MARSHFIELD     CLOUDY     8   2  76 NW5       30.47R WCI   0
STEVENS POINT  PTSUNNY   11   3  69 CALM      30.49R
WAUPACA        MOSUNNY   19   5  55 N5        30.51R WCI  12
WAUTOMA        PTSUNNY   14   6  70 NW7       30.52R WCI   4
WISC RAPIDS    PTSUNNY   12   3  67 CALM      30.51R
CAMP DOUGLAS   PTSUNNY   12   9  85 W6        30.52R WCI   3
$$

WIZ011>013-019>022-031-037>040-048>050-301600-
NORTHEAST WISCONSIN

CITY           SKY/WX    TMP DP  RH WIND       PRES   REMARKS
ANTIGO         CLOUDY    10   4  74 CALM      30.44R
SHAWANO        CLOUDY    16   4  59 N7        30.51S WCI   7
OCONTO         CLOUDY    14   3  62 CALM      30.52R
STURGEON BAY   CLOUDY    12   1  62 N15       30.53R WCI  -4
GREEN BAY      MOSUNNY   18   6  59 N5        30.52R WCI  11
MANITOWOC      SUNNY     17   6  62 N7        30.52R WCI   8
APPLETON       MOSUNNY   16   3  57 N6        30.49S WCI   7
CLINTONVILLE   CLOUDY    16   5  62 N5        30.50S WCI   9
OSHKOSH        SUNNY     17   5  59 NW7       30.50R WCI   8
$$

WIZ032>034-041-042-053>061-301600-
SOUTHWEST WISCONSIN

CITY           SKY/WX    TMP DP  RH WIND       PRES   REMARKS
LA CROSSE      MOSUNNY   14   4  64 N5        30.56R WCI   6
SPARTA         PTSUNNY   11   4  73 CALM      30.55R
VIROQUA        MOSUNNY   11   6  78 CALM      30.49R
BOSCOBEL       PTSUNNY   16   7  67 CALM      30.56R
PRAIRIE DU CHI MOSUNNY   16   8  70 CALM      30.56R
PLATTEVILLE    MOSUNNY   15   9  75 NW3       30.52R
$$

WIZ056-057-062-063-064-067-068-301600-
SOUTH CENTRAL WISCONSIN

CITY           SKY/WX    TMP DP  RH WIND       PRES   REMARKS
REEDSBURG      CLOUDY    13   6  74 CALM      30.51S
BARABOO/DELLS  PTSUNNY   13   6  72 CALM      30.50R
LONE ROCK      PTSUNNY   16   6  65 CALM      30.53S
MINERAL POINT  PTSUNNY   18   9  68 N5        30.50R WCI  11
MADISON        PTSUNNY   17   8  67 N7        30.51R WCI   8
MIDDLETON      PTSUNNY   18   8  65 N3        30.52R
WATERTOWN      MOSUNNY   17   8  66 NW7       30.50S WCI   8
MONROE         MOSUNNY   18  10  73 N7        30.49R WCI   8
JANESVILLE     SUNNY     19  10  68 NW5       30.51R WCI  13
$$

WIZ051-052-058>065-066-070>072-301600-
SOUTHEAST WISCONSIN

CITY           SKY/WX    TMP DP  RH WIND       PRES   REMARKS
MILWAUKEE      MOSUNNY   21   7  54 N7        30.51R WCI  12
WAUKESHA       SUNNY     16   5  62 NW6       30.51R WCI   7
MILWAUKEE/TIMM SUNNY     16   7  67 NW5       30.50S WCI   9
RACINE         SUNNY     20   8  60 NW8       30.52R WCI  10
BURLINGTON     SUNNY     18   6  59 N8        30.51R WCI   7
KENOSHA        SUNNY     21   9  59 N8        30.50S WCI  11
FOND DU LAC    FLURRIES  17   6  62 NW6       30.50R WCI   9
SHEBOYGAN      SUNNY     18   6  59 N8        30.50R WCI   8
WEST BEND      SUNNY     18   5  57 N6        30.49R WCI   9
JUNEAU         MOSUNNY   16   7  66 NW8       30.51R WCI   5
$$

LSZ147-162-301600-
LAKE SUPERIOR

STATION/POSITION TIME  TEMP    WIND        PRES    WAVE
                       AIR SEA DIR/SP/G            HT/PER
                 (UTC) (F)     (DEG/KT/KT) (MB)    (FT/S)
DEVILS ISLAND    1500   13     260/  9/ 14 1033.9F
PORT WING        1400    9     220/  5/  9 1033.2R
SAXON HARBOR     1400   13        CALM     1032.8R
$$

LMZ867-665-643>646-301600-
LAKE MICHIGAN

STATION/POSITION TIME  TEMP    WIND        PRES    WAVE
                       AIR SEA DIR/SP/G            HT/PER
                 (UTC) (F)     (DEG/KT/KT) (MB)    (FT/S)
NORTHPORT PIER   1410   13     310/ 14/ 21 1032.5R
SISTER BAY       1413   17      10/ 12/ 15   N/A
KEWAUNEE LAKESHO 1500   14     350/  5/ 10 1032.4R
SHEBOYGAN LAKESH 1500   18     340/ 10/ 12 1034.6R
PORT WASHINGTON  1400   19     360/  3/  6 1033.5
MILWAUKEE LAKESH 1500   20     330/  6/  9   N/A
KENOSHA   LAKESH 1500   20     330/ 10/ 12 1032.8R
$$

TC  - TEMPERATURE IN CELSIUS
VSB - VISIBILITY IN STATUTE MILES
WCI - WIND CHILL INDEX
HX  - HEAT INDEX



USA.gov is the U.S. government's official web portal to all federal, state and local government web resources and services.